CAT629 EKAH-EKOD

Flight info

Callsign CAT629
Flight time 0h 18m
Altitude 14000
Route LUTUS DCT ESIRU
Aircraft B738/M-SDE2E3FGHIRWXY/LB2

Departure

Time 2026-05-05 08:49
Airport Aarhus Airport (EKAH)

Arrival

Time 2026-05-05 09:07
Airport Odense Hans Christian Andersen Airport (EKOD)
Time Latitude Longitude Altitude Speed Heading
2026-05-05 08:35 56.30710 10.62717 74 ft 0 kts
2026-05-05 08:42 56.30705 10.62716 74 ft 2 kts
2026-05-05 08:42 56.30690 10.62712 74 ft 2 kts
2026-05-05 08:43 56.30676 10.62705 74 ft 2 kts 33°
2026-05-05 08:43 56.30664 10.62687 74 ft 2 kts 54°
2026-05-05 08:43 56.30658 10.62663 74 ft 2 kts 77°
2026-05-05 08:43 56.30656 10.62638 74 ft 0 kts 97°
2026-05-05 08:44 56.30657 10.62627 74 ft 1 kts 102°
2026-05-05 08:44 56.30658 10.62624 74 ft 0 kts 101°
2026-05-05 08:45 56.30658 10.62626 74 ft 0 kts 101°
2026-05-05 08:46 56.30653 10.62671 74 ft 7 kts 101°
2026-05-05 08:46 56.30638 10.62812 74 ft 13 kts 100°
2026-05-05 08:46 56.30617 10.62976 74 ft 12 kts 131°
2026-05-05 08:46 56.30530 10.62990 74 ft 13 kts 191°
2026-05-05 08:47 56.30436 10.62958 74 ft 14 kts 192°
2026-05-05 08:47 56.30338 10.62924 74 ft 14 kts 191°
2026-05-05 08:47 56.30242 10.62922 76 ft 12 kts 206°
2026-05-05 08:47 56.30236 10.62882 76 ft 1 kts 280°
2026-05-05 08:48 56.30237 10.62879 76 ft 0 kts 280°
2026-05-05 08:48 56.30238 10.62870 76 ft 10 kts 280°
2026-05-05 08:48 56.30302 10.62233 78 ft 89 kts 282°
2026-05-05 08:48 56.30449 10.60775 81 ft 148 kts 279°
2026-05-05 08:49 56.30634 10.58964 742 ft 145 kts 282°
2026-05-05 08:49 56.30787 10.57150 1371 ft 152 kts 280°
2026-05-05 08:49 56.30921 10.55215 1953 ft 161 kts 280°
2026-05-05 08:49 56.31060 10.53155 2430 ft 177 kts 279°
2026-05-05 08:50 56.31215 10.50932 3072 ft 185 kts 279°
2026-05-05 08:50 56.31224 10.48493 3570 ft 207 kts 258°
2026-05-05 08:50 56.30557 10.46123 3984 ft 226 kts 238°
2026-05-05 08:50 56.29553 10.43770 4101 ft 241 kts 234°
2026-05-05 08:51 56.28475 10.41354 4192 ft 255 kts 234°
2026-05-05 08:51 56.27361 10.38856 4434 ft 261 kts 234°
2026-05-05 08:51 56.26194 10.36234 5040 ft 272 kts 234°
2026-05-05 08:51 56.25037 10.33642 6080 ft 268 kts 233°
2026-05-05 08:52 56.23875 10.31046 7002 ft 270 kts 233°
2026-05-05 08:52 56.22720 10.28477 8000 ft 268 kts 233°
2026-05-05 08:52 56.21550 10.25897 9029 ft 272 kts 233°
2026-05-05 08:52 56.20403 10.23308 10249 ft 267 kts 236°
2026-05-05 08:53 56.19236 10.20474 10216 ft 301 kts 236°
2026-05-05 08:53 56.17987 10.17450 11183 ft 303 kts 236°
2026-05-05 08:53 56.16724 10.14489 12165 ft 305 kts 235°
2026-05-05 08:53 56.15431 10.11526 13138 ft 307 kts 234°
2026-05-05 08:54 56.14093 10.08517 13882 ft 311 kts 232°
2026-05-05 08:54 56.12525 10.05818 13933 ft 315 kts 219°
2026-05-05 08:54 56.10551 10.04186 13577 ft 320 kts 198°
2026-05-05 08:54 56.08309 10.03927 13006 ft 329 kts 178°
2026-05-05 08:55 56.06084 10.04965 12446 ft 336 kts 162°
2026-05-05 08:55 56.04023 10.06906 11919 ft 339 kts 152°
2026-05-05 08:55 56.02069 10.09273 11385 ft 338 kts 148°
2026-05-05 08:55 56.00207 10.11730 10962 ft 333 kts 147°
2026-05-05 08:56 55.98365 10.14198 10726 ft 322 kts 147°
2026-05-05 08:56 55.96604 10.16527 10316 ft 309 kts 147°
2026-05-05 08:56 55.94920 10.18709 9965 ft 297 kts 148°
2026-05-05 08:56 55.93232 10.20857 9486 ft 298 kts 148°
2026-05-05 08:57 55.91559 10.22966 9122 ft 295 kts 147°
2026-05-05 08:57 55.89878 10.25080 8759 ft 292 kts 147°
2026-05-05 08:57 55.88236 10.27144 8410 ft 289 kts 147°
2026-05-05 08:57 55.86608 10.29189 8063 ft 286 kts 147°
2026-05-05 08:58 55.84990 10.31223 7719 ft 283 kts 146°
2026-05-05 08:58 55.83410 10.33206 7368 ft 281 kts 146°
2026-05-05 08:58 55.81818 10.35203 7027 ft 278 kts 146°
2026-05-05 08:58 55.80242 10.37177 6688 ft 275 kts 145°
2026-05-05 08:59 55.78681 10.39133 6350 ft 273 kts 145°
2026-05-05 08:59 55.77159 10.41037 6022 ft 270 kts 145°
2026-05-05 08:59 55.75617 10.42965 5684 ft 268 kts 145°
2026-05-05 08:59 55.74106 10.44852 5351 ft 266 kts 144°
2026-05-05 09:00 55.72597 10.46733 5022 ft 264 kts 144°
2026-05-05 09:00 55.71095 10.48604 4697 ft 262 kts 144°
2026-05-05 09:00 55.69631 10.50427 4380 ft 260 kts 144°
2026-05-05 09:00 55.68169 10.52245 4211 ft 252 kts 144°
2026-05-05 09:01 55.66764 10.53991 4142 ft 240 kts 144°
2026-05-05 09:01 55.65431 10.55644 4071 ft 230 kts 145°
2026-05-05 09:01 55.64071 10.57008 3940 ft 223 kts 160°
2026-05-05 09:01 55.62564 10.57631 3712 ft 225 kts 172°
2026-05-05 09:02 55.61018 10.57993 3466 ft 223 kts 172°
2026-05-05 09:02 55.59496 10.58390 3210 ft 221 kts 171°
2026-05-05 09:02 55.57982 10.58730 2964 ft 218 kts 178°
2026-05-05 09:02 55.56511 10.58260 2731 ft 213 kts 208°
2026-05-05 09:03 55.55452 10.56602 2588 ft 201 kts 237°
2026-05-05 09:03 55.54730 10.54523 2444 ft 194 kts 242°
2026-05-05 09:03 55.54067 10.52488 2285 ft 189 kts 242°
2026-05-05 09:03 55.53411 10.50492 2103 ft 186 kts 242°
2026-05-05 09:04 55.52780 10.48578 1952 ft 176 kts 242°
2026-05-05 09:04 55.52178 10.46749 1739 ft 168 kts 242°
2026-05-05 09:04 55.51599 10.44986 1537 ft 164 kts 242°
2026-05-05 09:04 55.51039 10.43292 1280 ft 155 kts 242°
2026-05-05 09:05 55.50530 10.41751 1088 ft 142 kts 243°
2026-05-05 09:05 55.50047 10.40287 876 ft 134 kts 242°
2026-05-05 09:05 55.49588 10.38896 722 ft 134 kts 242°
2026-05-05 09:05 55.49113 10.37491 524 ft 133 kts 242°
2026-05-05 09:06 55.48653 10.36079 355 ft 131 kts 242°
2026-05-05 09:06 55.48197 10.34697 160 ft 131 kts 241°
2026-05-05 09:06 55.47744 10.33333 52 ft 121 kts 241°
2026-05-05 09:06 55.47444 10.32412 52 ft 56 kts 238°
2026-05-05 09:07 55.47290 10.32004 48 ft 18 kts 231°
2026-05-05 09:07 55.47302 10.31977 47 ft 8 kts 52°
2026-05-05 09:07 55.47348 10.32128 50 ft 15 kts 63°
2026-05-05 09:07 55.47403 10.32295 51 ft 17 kts 57°
2026-05-05 09:08 55.47474 10.32514 54 ft 19 kts 73°
2026-05-05 09:08 55.47429 10.32644 54 ft 12 kts 138°
2026-05-05 09:08 55.47392 10.32708 54 ft 0 kts 133°
2026-05-05 09:09 55.47374 10.32742 54 ft 10 kts 133°
2026-05-05 09:09 55.47322 10.32840 54 ft 10 kts 121°
2026-05-05 09:10 55.47337 10.32827 54 ft 7 kts 298°
2026-05-05 09:10 55.47371 10.32762 54 ft 5 kts
2026-05-05 09:10 55.47378 10.32827 54 ft 6 kts 115°
2026-05-05 09:10 55.47352 10.32884 54 ft 5 kts 135°
2026-05-05 09:11 55.47345 10.32897 54 ft 0 kts 135°